Flag for Germany Weather past 2 weeks in Gerolstein, Rhineland-Palatinate, Germany

Now
48 °F

Clear.


Feels Like: 48 °F
Forecast: 46 / 65 °F
Wind: 2 mph from Southwest

Location: Nuerburg-Barweiler

Current Time: Jul 30, 2015 at 2:39:12 AM

Latest Report: Jul 30, 2015 at 2:00 AM


Visibility: N/A

Pressure: 29.97 "Hg

Humidity: 80%

Dew point: 42 °F

Location of GerolsteinLocation

Historic Weather in Gerolstein — Graph

°F

Gerolstein temperature yesterday

Maximum temperature yesterday: 61 °F (at 2:00 PM)
Minimum temperature yesterday: 47 °F (at 6:00 AM)
Average temperature yesterday: 56 °F

Past Weeks' High & Low Weather Summary

 TemperatureHumidityPressure
High88 °F (Jul 17, 3:00 PM)100% (Jul 19, 7:00 AM)30.14 "Hg (Jul 19, 7:00 AM)
Low47 °F (Jul 26, 4:00 AM)21% (Jul 17, 3:00 PM)29.59 "Hg (Jul 25, 7:00 AM)
Average64 °F71%29.90 "Hg
* Reported Jul 15 1:00 AM — Jul 30 1:00 AM, Gerolstein, Weather by CustomWeather, © 2015

Note: Actual official high and low records may vary slightly from our data, if they occured in-between our weather recording intervals... More about our weather records

Advertising

Gerolstein weather history for previous 24 hours

 ConditionsComfort  
Time TempWeatherWind HumidityBarometerVisibility
1:00 AM
Thu, Jul 30
50 °FClear.2 mph74%29.97 "HgN/A
10:00 PM
Wed, Jul 29
54 °FPassing clouds.5 mph63%29.93 "HgN/A
9:00 PM57 °FScattered clouds.5 mph56%29.90 "HgN/A
8:00 PM60 °FScattered clouds.6 mph51%29.87 "HgN/A
7:00 PM61 °FPartly sunny.7 mph53%29.85 "HgN/A
6:00 PM60 °FPassing clouds.9 mph55%29.85 "Hg13 mi
5:00 PM59 °FScattered clouds.9 mph52%29.83 "Hg37 mi
4:00 PM60 °FPartly sunny.8 mph47%29.80 "Hg37 mi
3:00 PM59 °FPartly sunny.8 mph49%29.80 "Hg37 mi
2:00 PM61 °FPartly sunny.7 mph47%29.79 "Hg37 mi
1:00 PM60 °FScattered clouds.7 mph50%29.78 "Hg37 mi
12:00 PM59 °FScattered clouds.7 mph55%29.78 "Hg37 mi
10:00 AM55 °FScattered clouds.5 mph69%29.81 "Hg34 mi
9:00 AM54 °FPassing clouds.5 mph76%29.81 "Hg34 mi
8:00 AM51 °FPassing clouds.5 mph81%29.82 "Hg31 mi
7:00 AM50 °FPartly sunny.5 mph86%29.83 "Hg31 mi
6:00 AM47 °FPassing clouds.3 mph89%29.84 "Hg31 mi
4:00 AM50 °FPassing clouds.3 mph87%29.85 "Hg25 mi
3:00 AM50 °FPassing clouds.3 mph84%29.84 "Hg34 mi
2:00 AM51 °FPassing clouds.5 mph82%29.84 "Hg34 mi
Weather by CustomWeather, © 2015

See weather overviewHow to use our weather pages